COSMOS 249 DEB *, 3679

Orbit data source: Space-Track

COSMOS 249 DEB *, 3679 is space debris in LEO originally from a launch on Sun, 20 Oct 1968 UTC launched from the Tyuratam Missile And Space Complex (TTMTR). Debris objects in space refer to the collection of defunct objects orbiting the Earth. Examples of debris include non-operational satellites, rocket bodies, and fragments generated from explosions, collisions, or faulty payload assembly.

Loading next visibility...
Identifier
3679, 1968-091AE
Orbit
LEO
Country
Flag of CISCIS
Related business
Manufacturer
Unknown
Mission
Spacecraft
Bus & Motor
Unknown
Mass
Unknown
Launch date (UTC)
1968-10-20 (57 years ago)
Launch vehicle
Unknown
Launch site
Tyuratam Missile And Space Complex (TTMTR)
Object type
Payload
Rocket body
Debris
Shape & HBR
Unknown shape, 0.1 m
Radar Cross Section
Small (<0.1 m²)

Expand to show TLE details & history
Last TLE update: 1 day ago

TLE from 1 day ago
0 COSMOS 249 DEB *
1 03679U 68091AE  25349.41465380  .00005109  00000-0  12577-2 0  9992
2 03679  62.7485 145.7632 0492416 216.1724 140.5076 13.98942257758706
Epoch: 2025-12-15T09:57Z
TLE epoch observation values (Epoch: 2025-12-15T09:57:06.088Z)
Latitude
-0.00003°
Longitude
-87.82574°
Altitude
1,182.449 km
Speed
7.12 km/s
True Right ascension
09h 43m 03s
True Declination
0° 00' 00"
Sunlit
Object was in daylight at epoch
Visualization orbit readout
Latitude
Unknown
Longitude
Unknown
Altitude
Unknown
Speed
Unknown
Apparent Right ascension
Unknown
Apparent Declination
Unknown
Sunlit
N/A
Visualization observer readout
Local Sidereal Time
16:46:05
Azimuth
Unknown
Elevation
Unknown
Doppler factor
Unknown
Orbital elements
Apogee altitude
1,254.545 km
Perigee altitude
538.131 km
Semi-major axis
7,274.475 km
Eccentricity
0.04924
Inclination
62.7485°
RAAN
145.7632°
Arg. of periapsis
216.1724°
True anomaly
143.93117°
Mean anomaly
140.5076°
Eccentric anomaly
142.23544°
Mean motion
3.49817 °/min
Orbital period
102.91 mins
BSTAR
0.0012577

Documentation

Showing up to 5 results
|